Terminal Aerodrome Forecast
Issued by NWS

Home | Current Version | Previous Version | Text Only | Print | Product List | Glossary On
Versions: 1 2 3 4 5 6 7 8 9 10 11 12 13 14 15 16 17 18 19 20
000
FTUS46 KSEW 260208 CCA
TAFBLI
TAF COR
KBLI 260208Z 2602/2624 15005KT P6SM VCSH BKN060 OVC200
     FM260600 VRB03KT P6SM SCT070 OVC150
     FM261200 05006KT P6SM BKN070 OVC120
     FM261900 06009KT P6SM -RA BKN045 OVC070=

USA.gov is the U.S. government's official web portal to all federal, state and local government web resources and services.